Vertical_Velocity
2 2 -0 -2 2 -1 -1 0 -1 -3 -1 -1 1 -2 -2 -1 -3 -2 -2 -2 -3 -1 -2 1 1 0 3 -2 -1 8 1 -9 -7 -4 -19 13 7 6 -4 -3 -2 4 7 -4 5
0 1 -1 -1 0 -2 1 0 -2 -2 -1 -1 -1 -0 -1 -3 -0 -11 9 -1 -1 1 -1 -0 2 -2 -2 -3 1 3 -6 -1 -0 -1 -12 1 11 4 -1 2 -7 4 10 -3 14
2 2 -2 -1 -0 -3 -0 -2 -3 -1 -0 -0 -0 -1 0 -2 -0 -9 0 5 -0 -0 -1 -1 2 3 -1 1 -1 -1 -6 -8 2 1 2 -0 5 17 -5 -7 -1 -4 8 11 5
3 -1 -2 -0 -1 -2 -3 -1 -1 1 -2 0 -0 0 1 -2 -8 -2 -2 3 0 -2 -2 1 2 3 -1 0 3 -4 3 -7 -4 -2 -4 1 -0 2 7 -1 -2 -7 -5 1 -0
1 -0 -0 0 -0 -2 -0 -1 -1 -1 -0 -1 0 1 0 -8 6 0 -3 1 3 -2 -1 0 1 4 -2 -2 -3 1 -3 -2 -4 -4 -2 7 -0 -8 -7 4 2 -4 -3 -1 4
-1 1 1 2 -0 -1 1 -1 -1 -2 1 -0 1 -2 -1 -12 5 2 -1 -1 -2 1 -5 0 -3 2 -1 -4 -1 -2 1 -5 4 0 -3 9 1 11 -12 2 -3 -4 -4 2 0
0 -0 1 0 2 -1 -1 -0 1 -0 -3 -1 0 -2 -10 14 -5 1 -1 -1 2 2 -3 -6 3 6 4 -5 3 -4 -5 -3 -2 1 -5 4 -10 -6 -5 7 -8 -7 2 5 -4
0 0 1 1 1 -1 -0 -1 -2 -2 -3 -1 1 -3 -13 8 -3 -1 -1 1 2 2 2 1 1 -4 0 0 1 -4 1 3 -1 -0 -2 26 -26 -5 0 4 -9 -0 6 2 0
-1 -1 1 0 1 1 -0 -3 -1 -1 -4 0 -1 -2 -7 -1 2 4 1 1 0 0 -3 2 1 -6 5 3 2 9 -0 8 -15 2 5 5 -8 -10 2 -0 -7 -1 7 -3 2
3 0 0 0 1 0 2 -2 -3 1 -2 -1 -2 -1 -2 -4 3 0 0 3 2 1 -1 -4 -2 2 10 9 -6 -17 -5 -5 -3 -9 1 -9 -7 -11 -3 5 -1 3 6 3 -0
3 0 2 1 0 -2 3 -2 -1 -2 0 3 -5 1 -5 -3 1 1 2 3 3 5 -8 -5 1 2 -20 -6 2 3 2 -3 -0 4 2 -1 -5 -16 -7 0 2 3 1 4 -3
4 2 -0 2 -0 -2 1 -1 3 -1 -8 -6 1 -8 6 -8 -6 -1 4 -3 1 -10 8 -2 0 -15 4 8 3 1 2 -11 -8 1 17 13 -10 -13 4 -10 -6 -1 -1 3 2
3 4 1 -1 -0 0 1 -3 1 1 -3 -13 -1 -1 8 5 4 -6 7 2 -2 7 -7 -14 1 -1 3 3 -1 -2 -9 3 -0 6 -5 5 -11 -14 -4 1 5 -0 4 3 -1
5 6 3 -0 -0 -0 4 -7 2 1 -3 -9 -6 -3 1 -2 -3 -5 -1 5 7 -6 2 6 -3 10 -1 -11 11 -2 19 6 2 10 -4 15 -11 -23 -7 -8 1 -2 0 -5 2
-4 10 4 4 1 3 2 -6 2 -3 1 0 -2 -2 -5 -2 -7 -6 11 11 3 -4 -3 -14 -0 -2 -5 -5 7 -44 -1 8 8 -2 19 -10 20 -37 6 -12 -7 -3 2 0 6
1 3 2 -2 2 2 1 -1 0 -5 -12 -2 -2 -3 -3 1 0 1 -3 14 4 25 11 0 6 3 -5 13 -4 9 3 5 4 10 12 -17 23 -15 -11 -27 -4 18 5 -2 2
27 17 -10 -9 2 2 -1 1 -2 -2 1 -0 -1 -4 1 -1 -4 -6 3 1 1 16 2 5 -9 -4 1 4 8 7 10 -1 6 7 -14 -7 15 -45 4 1 -4 -2 -10 -2 -3
-10 -10 -13 24 3 -1 4 2 -0 3 -1 -0 -1 2 1 1 -4 -0 2 4 -1 9 2 -3 -1 2 4 -23 -9 -11 2 -10 -5 -2 -7 6 -0 -43 -0 11 13 10 5 2 -1
42 -5 -14 18 11 6 0 -1 -8 -3 -1 -2 0 1 -1 -3 1 1 1 -1 5 -3 -6 -1 -8 -6 1 11 18 -27 23 -25 7 -0 10 -4 4 10 3 5 1 -4 2 -1 -2
21 -5 -16 11 -6 12 9 -6 0 -0 -2 -3 -1 -1 -1 -2 -0 2 -1 -2 -10 -11 2 -7 -6 -5 -31 32 4 6 7 10 16 2 1 1 1 -6 -2 -3 0 -3 -2 -2 2
17 5 -9 21 7 20 -1 -9 -3 -2 1 -1 -2 2 -2 -1 1 -3 -3 -3 2 3 15 -1 7 -7 5 7 -8 -3 -2 2 6 -3 1 -1 -3 1 -4 -5 -3 2 2 2 2
32 15 -12 5 15 -0 -9 -2 -2 -3 8 2 -1 2 -2 1 -4 4 -11 -4 -4 14 -10 -2 10 -0 -11 29 -2 13 -13 -1 -1 -5 12 -1 -1 0 12 3 2 1 1 3 3
12 -1 -2 -1 5 -5 -2 -5 -1 5 3 3 -2 -0 3 6 -1 3 2 4 -1 -8 -6 -15 6 -3 1 12 13 -4 -5 31 -9 -1 4 -6 1 4 2 0 -1 0 2 2 1
5 -0 17 8 -2 -2 1 -5 -3 0 8 6 -0 1 -1 8 -1 3 -6 -0 -4 -0 7 1 4 -7 -6 4 -11 -3 -5 2 -7 11 5 2 -7 3 -0 3 -0 -4 0 0 1
-2 -7 -3 -10 -15 -2 2 1 -0 2 3 6 7 -9 -4 -4 3 -3 -1 4 12 -3 1 -9 -4 6 3 2 3 -10 -16 10 3 15 -4 4 -0 -6 -1 -1 1 -1 -3 -2 -1
-4 -2 -6 -6 -1 -1 2 -4 -2 2 18 2 -3 -4 -0 -5 -8 8 1 -5 1 12 -1 -2 -11 16 -1 3 -2 -6 -8 11 4 10 -6 6 -1 14 15 1 -4 -1 -1 -0 -0
-6 -3 11 -5 0 7 -6 3 1 7 1 0 -1 4 3 -4 5 9 -5 16 2 4 3 6 10 0 2 1 7 -0 -15 -4 0 2 -5 1 1 0 2 6 1 4 0 -5 -4
Height
3086 3086 3086 3085 3084 3084 3083 3083 3083 3082 3082 3084 3085 3085 3086 3087 3088 3090 3096 3096 3097 3099 3101 3103 3106 3110 3113 3115 3120 3124 3121 3117 3120 3126 3128 3133 3134 3135 3134 3134 3136 3139 3138 3140 3140
3083 3082 3081 3082 3081 3080 3080 3079 3079 3078 3079 3079 3080 3081 3081 3082 3082 3082 3093 3093 3090 3092 3095 3097 3100 3101 3103 3109 3112 3114 3111 3111 3117 3124 3126 3129 3131 3131 3131 3130 3133 3134 3135 3135 3135
3078 3077 3077 3077 3077 3076 3076 3075 3075 3073 3073 3074 3075 3076 3076 3075 3077 3078 3083 3085 3085 3087 3090 3092 3095 3097 3098 3103 3105 3106 3103 3110 3114 3120 3124 3124 3125 3127 3125 3126 3129 3129 3131 3132 3132
3073 3072 3072 3071 3071 3071 3071 3071 3070 3070 3069 3069 3070 3071 3069 3071 3076 3070 3075 3077 3079 3081 3084 3088 3091 3091 3093 3096 3101 3099 3102 3107 3110 3114 3117 3116 3119 3120 3121 3121 3123 3124 3126 3125 3127
3068 3068 3067 3066 3065 3066 3067 3066 3065 3064 3065 3065 3065 3065 3063 3066 3068 3068 3071 3075 3076 3077 3079 3082 3085 3087 3087 3092 3096 3093 3097 3100 3102 3106 3108 3111 3111 3112 3112 3115 3117 3121 3121 3123 3124
3063 3062 3062 3062 3061 3061 3062 3061 3062 3060 3060 3061 3060 3059 3059 3063 3064 3062 3065 3069 3070 3072 3076 3077 3081 3084 3083 3085 3088 3089 3091 3090 3093 3096 3100 3103 3104 3106 3105 3109 3110 3114 3115 3116 3117
3056 3057 3057 3057 3057 3057 3057 3057 3057 3057 3056 3056 3055 3053 3054 3062 3057 3057 3058 3065 3067 3067 3070 3072 3077 3079 3079 3080 3081 3082 3082 3082 3084 3090 3093 3101 3094 3094 3101 3103 3104 3107 3109 3110 3111
3050 3051 3052 3052 3052 3053 3052 3053 3053 3053 3053 3052 3051 3049 3050 3053 3051 3052 3053 3060 3062 3064 3067 3069 3070 3071 3073 3075 3076 3078 3078 3075 3081 3086 3089 3096 3083 3092 3097 3098 3100 3100 3102 3103 3105
3045 3045 3046 3046 3046 3047 3048 3047 3048 3048 3047 3047 3047 3045 3047 3046 3046 3047 3049 3055 3056 3058 3060 3063 3065 3065 3070 3070 3073 3073 3070 3074 3077 3082 3086 3087 3081 3088 3092 3093 3095 3095 3097 3096 3099
3037 3039 3040 3041 3041 3041 3043 3043 3043 3043 3043 3041 3041 3043 3044 3042 3042 3042 3044 3048 3051 3053 3055 3057 3057 3057 3061 3065 3063 3069 3070 3070 3070 3075 3081 3080 3077 3081 3085 3087 3087 3090 3092 3093 3094
3030 3031 3034 3036 3036 3035 3038 3039 3041 3039 3036 3038 3037 3037 3036 3037 3039 3041 3041 3042 3045 3048 3048 3051 3048 3048 3057 3060 3064 3066 3066 3066 3066 3072 3074 3071 3072 3074 3079 3081 3082 3083 3086 3087 3088
3021 3024 3026 3028 3030 3030 3033 3034 3033 3033 3027 3028 3031 3028 3032 3031 3032 3037 3038 3039 3040 3040 3045 3046 3035 3049 3054 3057 3059 3061 3062 3057 3060 3066 3069 3068 3064 3066 3070 3072 3075 3078 3080 3082 3081
3015 3017 3019 3021 3023 3026 3027 3029 3027 3026 3023 3016 3021 3020 3023 3026 3024 3029 3032 3034 3035 3037 3038 3036 3037 3044 3047 3051 3053 3054 3055 3053 3058 3062 3061 3062 3056 3054 3059 3064 3067 3070 3074 3076 3075
3009 3011 3012 3015 3019 3019 3023 3022 3023 3023 3021 3014 3013 3012 3013 3016 3016 3020 3024 3029 3028 3028 3033 3030 3035 3039 3042 3042 3047 3048 3052 3055 3055 3064 3057 3058 3047 3043 3048 3052 3057 3060 3064 3068 3070
3003 3006 3007 3009 3011 3015 3018 3018 3020 3021 3023 3011 3009 3011 3010 3013 3012 3014 3018 3020 3019 3022 3026 3021 3023 3030 3032 3030 3045 3038 3050 3051 3055 3055 3056 3051 3053 3033 3041 3043 3046 3050 3055 3061 3063
2997 3000 3002 3003 3007 3011 3013 3015 3017 3024 3015 3007 3006 3007 3009 3008 3009 3010 3013 3014 3014 3015 3015 3017 3023 3026 3026 3032 3038 3041 3045 3048 3050 3052 3047 3040 3045 3028 3030 3032 3036 3040 3048 3053 3056
2989 2992 2997 2999 3004 3005 3007 3011 3016 3014 3007 3004 3002 3003 3004 3004 3004 3006 3007 3007 3009 3009 3008 3013 3015 3018 3022 3026 3031 3035 3042 3045 3045 3045 3031 3034 3040 3028 3025 3025 3029 3032 3038 3044 3049
2980 2986 2991 2994 2998 3000 3002 3006 3007 3001 3001 2999 3000 3000 3000 3000 3001 3002 3001 3001 3002 3004 3006 3009 3012 3011 3012 3014 3019 3023 3030 3035 3033 3026 3020 3030 3026 3018 3022 3020 3025 3029 3033 3038 3043
2971 2980 2983 2986 2992 2994 2997 2996 2993 2994 2997 2998 2998 2997 2996 2997 2999 2997 2995 2995 2997 3001 3005 3006 3003 3003 3003 3005 3012 3015 3016 3022 3025 3019 3022 3018 3019 3016 3016 3018 3021 3024 3029 3033 3038
2966 2974 2977 2982 2987 2988 2989 2987 2988 2990 2992 2994 2994 2994 2993 2993 2994 2994 2992 2991 2992 2995 2999 3001 2997 2996 2993 2996 3001 3009 3014 3021 3018 3013 3009 3013 3007 3004 3008 3011 3016 3020 3024 3029 3034
2963 2968 2972 2977 2982 2981 2978 2981 2982 2985 2987 2989 2988 2990 2990 2991 2991 2992 2991 2989 2988 2990 2994 2995 2996 2992 2989 2988 2988 2997 3002 3008 3014 3013 3001 3003 2999 2999 3002 3008 3012 3017 3022 3026 3030
2952 2962 2967 2972 2973 2972 2974 2977 2979 2980 2981 2982 2984 2985 2986 2987 2988 2988 2984 2985 2983 2986 2987 2987 2989 2983 2980 2978 2985 2991 2994 3000 3004 2997 2991 2987 2996 2998 3004 3008 3012 3016 3020 3024 3028
2949 2957 2962 2967 2966 2968 2972 2974 2976 2974 2975 2976 2978 2980 2980 2983 2985 2982 2980 2981 2981 2980 2982 2984 2985 2984 2974 2977 2980 2981 2986 2988 2990 2992 2985 2987 2997 2999 3004 3007 3010 3013 3017 3020 3024
2946 2953 2955 2959 2961 2966 2969 2970 2970 2969 2969 2969 2972 2976 2978 2979 2979 2979 2976 2978 2978 2977 2978 2981 2979 2976 2973 2972 2973 2974 2980 2979 2983 2988 2983 2985 2991 2998 3002 3006 3008 3012 3016 3019 3022
2940 2946 2949 2952 2958 2962 2965 2965 2965 2965 2965 2964 2966 2969 2972 2975 2976 2977 2978 2976 2978 2978 2977 2978 2972 2969 2966 2965 2968 2972 2973 2979 2986 2986 2986 2992 2995 2999 3003 3006 3009 3012 3015 3018 3020
2937 2943 2947 2952 2955 2958 2959 2960 2961 2960 2962 2962 2962 2965 2969 2968 2972 2975 2976 2977 2977 2979 2977 2974 2967 2964 2961 2964 2967 2971 2972 2979 2986 2987 2991 2994 2996 3000 3003 3006 3009 3012 3014 3016 3019
2933 2939 2945 2948 2951 2954 2955 2957 2957 2957 2957 2958 2962 2963 2965 2968 2971 2972 2972 2974 2974 2976 2976 2977 2971 2971 2972 2970 2974 2979 2975 2978 2981 2984 2990 2993 2998 2999 3002 3005 3007 3009 3012 3015 3017